Wind_Speed
12 12 12 13 13 13 13 14 14 13 13 12 10 10 9 9 8 7 7 7 6 5 5 4 4 3 3 4 4 4 3 3 2 2 2 2 3 4 5 5 5 6 7
11 11 11 12 12 12 12 13 14 14 14 13 12 11 10 10 9 8 8 7 7 6 5 5 4 4 4 3 3 2 3 3 3 3 3 3 4 4 5 6 6 7 7
11 10 10 10 11 11 11 12 12 13 13 14 14 13 12 11 10 9 8 8 7 7 6 5 5 5 4 4 4 3 3 3 3 4 4 5 5 6 6 7 7 7 8
10 10 9 9 10 10 10 11 11 12 13 13 14 14 13 12 11 10 9 8 8 7 6 6 5 5 5 5 5 4 4 4 5 5 5 6 6 6 6 7 8 9 9
9 9 9 8 9 9 9 10 10 11 12 12 13 13 13 12 12 11 10 9 9 8 7 6 6 6 5 5 5 5 5 5 5 6 6 7 7 7 7 8 9 10 10
8 8 8 8 8 9 9 9 9 10 11 12 12 13 12 12 12 12 11 9 9 8 7 7 7 7 6 6 6 6 6 6 6 7 7 8 9 10 9 9 9 10 10
8 8 8 8 8 9 9 9 9 10 10 11 12 12 12 12 12 12 11 10 10 9 8 8 8 8 7 7 7 7 7 7 8 8 9 10 10 10 11 11 11 11 11
9 8 8 9 9 9 9 9 9 10 10 11 11 12 12 12 12 12 11 11 10 10 10 9 9 9 8 8 8 8 8 9 9 10 10 11 11 11 12 12 12 12 12
10 10 10 10 9 9 9 9 9 10 10 11 12 11 11 11 12 12 12 11 11 10 10 10 10 10 10 9 10 10 10 10 11 11 11 11 11 11 12 12 12 12 12
11 11 11 10 10 10 10 10 10 10 11 11 12 12 12 12 12 12 13 12 12 12 11 11 10 10 10 10 11 11 11 11 12 12 12 12 12 12 12 13 13 13 13
12 12 12 12 11 11 11 11 11 12 12 12 12 13 13 13 13 13 13 13 13 13 12 12 11 11 11 11 11 12 12 12 13 13 13 13 13 14 14 14 13 13 14
15 13 13 13 13 12 12 13 13 13 13 13 14 14 14 13 13 13 13 13 13 13 13 12 12 12 12 12 12 12 13 14 13 14 14 14 15 15 15 15 15 15 15
17 16 16 15 15 15 16 15 15 15 15 15 15 15 15 15 14 14 14 14 14 13 13 14 13 13 13 13 13 13 13 14 14 15 15 16 16 16 16 16 16 16 16
20 19 19 18 17 18 17 18 18 17 17 17 17 17 17 17 16 15 15 15 15 14 14 14 14 14 14 14 14 15 15 15 16 16 16 16 16 17 17 17 18 18 18
21 22 21 20 20 20 20 20 20 19 19 19 18 18 18 18 17 17 17 16 16 16 15 16 16 16 16 15 15 16 16 17 17 17 17 17 18 18 18 19 19 19 20
23 23 23 23 23 22 21 21 21 21 21 21 20 20 20 20 19 20 19 18 18 18 18 18 18 18 18 18 17 17 17 18 18 18 18 18 19 19 19 19 19 20 21
26 26 25 24 24 24 23 23 24 24 23 23 22 22 22 22 21 21 21 21 21 21 20 20 20 20 20 20 20 19 19 19 20 20 19 20 20 20 21 20 20 20 21
28 28 28 27 26 26 26 25 26 26 25 25 24 24 23 23 23 23 23 23 23 23 23 23 22 22 22 22 22 21 21 21 21 21 21 21 21 21 22 21 21 21 21
29 29 30 29 29 28 28 28 28 28 27 26 26 26 26 25 26 26 25 26 26 25 25 25 25 24 23 24 24 24 23 23 23 23 23 23 24 23 23 23 22 22 23
31 31 32 32 31 31 30 30 30 30 29 28 27 28 29 29 28 28 28 28 28 28 28 27 26 26 26 26 25 26 25 25 25 25 25 25 25 25 25 25 24 24 24
34 34 34 34 34 33 32 31 31 31 30 30 30 30 31 31 31 30 30 29 29 29 29 29 28 28 28 28 27 27 27 27 27 27 26 27 27 26 27 26 26 26 26
37 36 36 35 35 35 34 33 32 32 31 31 31 31 31 31 31 31 31 31 31 31 31 31 30 30 29 29 29 29 29 30 30 29 28 28 28 28 28 27 27 27 27
38 38 37 37 36 36 35 34 33 33 33 32 32 32 32 32 32 32 32 32 32 32 32 32 31 31 30 30 30 30 30 31 31 31 30 29 28 28 28 28 29 29 29
38 38 38 37 36 36 36 35 34 34 34 34 33 33 33 33 33 33 33 33 32 33 33 33 33 32 32 32 32 32 32 32 32 32 31 29 29 29 30 30 29 29 29
39 39 38 37 37 38 38 37 36 35 34 34 34 34 34 34 34 34 33 33 34 34 33 33 33 33 33 33 32 33 33 33 33 32 31 30 29 30 31 31 31 31 30
39 40 40 39 38 39 38 38 37 36 35 35 35 35 35 35 35 34 34 33 33 33 33 33 33 32 33 33 34 34 33 33 33 33 32 31 32 32 31 31 32 32 31
Wind_Direction
24 24 25 27 30 31 31 31 31 31 30 30 29 28 30 26 27 27 25 28 27 21 20 13 6 353 344 337 337 338 342 345 338 317 307 307 295 297 298 293 297 291 287
15 16 18 22 26 28 29 30 29 30 31 30 30 31 29 27 28 26 23 22 20 21 19 17 11 7 11 8 3 349 339 338 337 333 327 322 310 304 303 296 298 298 295
6 11 11 15 19 23 24 26 28 29 30 30 29 27 26 25 24 23 21 17 13 9 10 17 13 8 4 358 351 341 337 332 329 329 319 310 303 303 298 299 301 300 296
357 2 2 8 12 17 20 23 23 24 25 25 24 23 23 22 19 16 14 11 8 7 9 11 7 2 355 347 343 334 326 319 317 314 313 310 307 304 301 299 297 295 295
351 355 358 5 8 13 15 18 17 15 15 15 17 17 18 18 16 14 9 6 7 5 3 3 1 354 350 340 333 327 315 311 311 314 313 312 313 311 302 301 300 298 297
346 351 353 356 1 5 6 9 10 7 7 7 8 11 12 11 9 9 6 2 0 357 356 354 354 351 344 339 336 330 322 312 309 310 314 315 315 314 308 302 301 298 296
330 335 340 344 347 352 357 2 2 1 360 359 0 2 3 4 3 0 359 357 353 349 349 349 345 341 336 336 336 331 324 316 312 311 311 311 311 311 309 305 305 301 297
315 320 324 329 334 339 345 351 355 356 355 352 351 353 354 355 356 354 351 350 349 346 347 346 343 337 331 329 329 326 322 320 315 312 309 308 307 307 307 307 306 306 303
306 310 312 317 322 325 332 338 342 346 348 346 344 345 345 346 347 347 344 342 341 340 338 336 334 330 325 321 321 320 317 317 316 314 310 308 305 305 305 305 304 304 307
302 303 305 306 310 312 318 325 329 331 335 337 338 338 339 338 338 339 338 335 332 332 332 330 328 325 322 318 318 317 314 313 312 311 310 307 305 304 303 303 301 300 301
293 297 301 303 305 305 309 315 317 319 323 327 330 331 332 332 331 330 330 330 327 324 324 324 323 321 318 315 315 316 312 310 310 309 307 307 306 306 304 303 302 299 299
289 293 295 296 300 302 306 309 312 313 314 317 320 322 323 324 324 323 321 321 321 320 318 316 317 317 316 316 316 314 313 310 310 310 308 307 306 304 302 301 301 300 300
282 285 288 291 295 297 300 304 306 306 307 308 311 314 314 315 316 317 316 313 312 312 313 314 313 312 312 313 312 310 309 309 309 307 305 304 303 302 299 298 298 299 300
277 279 284 288 291 295 296 297 298 299 301 302 305 308 309 309 308 310 310 309 307 307 310 310 309 307 306 306 306 304 303 305 305 304 303 302 302 301 299 299 299 299 300
274 277 281 284 286 290 292 292 294 295 297 298 299 300 303 305 305 305 305 304 303 305 305 305 304 303 304 303 303 303 302 302 301 300 300 300 300 300 300 300 299 299 299
270 273 276 279 282 285 287 289 290 291 292 293 294 295 297 298 300 302 301 300 300 301 302 302 300 300 300 301 301 300 300 301 300 299 299 300 299 299 299 299 299 300 301
268 270 273 276 279 282 284 286 289 289 289 289 290 291 292 294 295 297 297 297 297 296 297 299 298 297 296 296 297 297 297 297 299 299 298 298 299 300 298 297 297 299 302
268 269 273 275 276 279 281 283 285 287 286 286 287 287 289 291 293 294 295 295 295 295 294 295 294 294 294 294 294 293 293 295 296 296 295 297 298 297 298 300 300 299 300
266 268 270 273 275 278 279 280 281 283 283 285 285 286 287 288 289 291 292 293 293 294 294 294 293 292 291 291 292 292 294 293 293 293 292 293 294 295 297 298 300 301 301
266 268 270 272 274 277 278 278 278 278 280 281 282 284 285 286 286 288 290 290 291 291 291 291 292 291 291 289 288 290 291 292 291 291 291 291 292 293 293 294 297 298 298
264 266 268 270 273 274 275 276 277 277 277 279 281 283 283 284 285 286 288 289 289 289 290 289 290 291 290 289 287 289 290 290 291 291 291 291 291 291 292 293 294 296 296
262 264 266 268 270 271 273 274 275 275 275 277 279 281 283 283 284 285 286 286 287 289 290 290 289 290 289 288 288 286 287 288 289 291 291 291 290 290 290 291 292 293 294
261 263 264 265 266 268 270 272 272 272 273 275 276 279 281 283 283 284 283 284 285 287 288 288 287 288 288 287 286 286 287 288 288 289 290 290 290 290 290 290 290 292 292
260 262 263 263 264 266 268 269 270 271 272 273 275 277 280 282 283 283 283 283 284 284 285 285 284 286 287 288 287 286 286 286 287 286 287 287 287 287 289 290 290 290 292
260 260 261 263 265 266 267 268 268 269 271 273 275 277 279 281 282 283 284 284 284 283 284 285 284 284 285 286 285 286 285 283 285 286 285 286 288 288 289 289 290 290 291
261 260 261 264 265 266 267 267 268 270 272 275 276 277 278 279 280 282 283 283 283 283 283 284 284 284 284 285 285 285 286 284 283 284 284 284 285 286 288 288 289 290 291
Height
5912 5911 5909 5908 5906 5904 5903 5902 5900 5899 5897 5896 5895 5894 5893 5892 5891 5889 5889 5888 5887 5886 5886 5885 5885 5885 5885 5885 5884 5884 5884 5884 5885 5885 5885 5885 5885 5885 5885 5885 5885 5885 5885
5914 5912 5911 5910 5908 5907 5905 5904 5902 5901 5899 5898 5896 5895 5894 5893 5892 5891 5890 5889 5888 5887 5886 5886 5886 5885 5885 5885 5885 5884 5884 5884 5884 5885 5885 5885 5885 5884 5884 5884 5883 5883 5883
5915 5914 5912 5911 5910 5908 5907 5906 5905 5903 5902 5900 5898 5897 5895 5894 5893 5892 5891 5890 5889 5888 5887 5886 5886 5885 5885 5885 5885 5884 5884 5884 5884 5884 5884 5884 5884 5883 5883 5882 5882 5882 5881
5915 5915 5913 5912 5911 5910 5908 5907 5906 5905 5903 5902 5900 5899 5897 5896 5894 5893 5892 5891 5890 5888 5888 5887 5886 5886 5885 5885 5884 5884 5884 5884 5884 5884 5883 5883 5882 5882 5881 5881 5880 5880 5879
5916 5915 5914 5912 5912 5911 5909 5908 5907 5906 5905 5903 5902 5900 5898 5897 5896 5894 5893 5892 5891 5889 5888 5887 5887 5886 5885 5885 5884 5884 5883 5883 5883 5883 5882 5881 5881 5880 5879 5879 5879 5878 5877
5917 5915 5915 5914 5913 5912 5910 5909 5908 5907 5906 5904 5903 5901 5900 5898 5896 5895 5893 5892 5891 5890 5889 5888 5887 5886 5885 5885 5884 5884 5883 5883 5882 5882 5881 5880 5879 5879 5877 5877 5876 5875 5875
5917 5916 5915 5914 5913 5912 5911 5910 5909 5907 5906 5905 5903 5902 5900 5898 5897 5895 5894 5892 5891 5890 5889 5888 5887 5886 5885 5885 5884 5883 5883 5882 5881 5880 5880 5879 5878 5876 5875 5875 5874 5873 5872
5916 5915 5914 5913 5913 5912 5911 5910 5908 5907 5906 5905 5903 5902 5900 5899 5897 5895 5894 5892 5891 5890 5888 5887 5886 5886 5885 5884 5883 5882 5882 5881 5880 5879 5878 5877 5876 5875 5873 5873 5872 5871 5869
5915 5914 5913 5913 5912 5911 5910 5909 5908 5907 5906 5904 5902 5901 5900 5898 5897 5895 5894 5892 5891 5889 5888 5887 5886 5885 5884 5883 5882 5881 5880 5879 5878 5877 5876 5875 5873 5872 5871 5870 5869 5868 5867
5913 5913 5912 5911 5910 5910 5909 5908 5907 5906 5905 5903 5902 5900 5899 5897 5896 5894 5893 5891 5890 5889 5887 5886 5885 5883 5883 5882 5881 5880 5879 5877 5876 5875 5873 5872 5871 5870 5869 5867 5866 5865 5864
5911 5911 5910 5909 5908 5907 5906 5906 5905 5904 5903 5902 5901 5899 5898 5896 5895 5893 5892 5890 5889 5887 5886 5885 5883 5882 5881 5880 5879 5878 5876 5875 5873 5872 5870 5869 5868 5867 5865 5864 5863 5862 5861
5908 5908 5907 5906 5905 5904 5903 5904 5903 5902 5901 5900 5899 5897 5896 5895 5893 5891 5890 5888 5887 5885 5884 5882 5881 5880 5879 5877 5876 5875 5874 5872 5870 5869 5868 5866 5864 5863 5862 5861 5859 5858 5857
5905 5904 5904 5904 5903 5902 5902 5901 5900 5899 5898 5897 5896 5895 5893 5892 5891 5889 5887 5886 5884 5883 5881 5880 5879 5877 5876 5875 5874 5872 5871 5869 5868 5866 5864 5863 5861 5860 5859 5857 5856 5854 5853
5901 5901 5901 5900 5899 5899 5899 5898 5897 5896 5895 5894 5893 5892 5890 5889 5887 5886 5884 5883 5881 5880 5879 5877 5876 5874 5873 5872 5871 5869 5868 5866 5864 5863 5861 5859 5858 5856 5855 5854 5852 5850 5849
5897 5896 5896 5896 5895 5895 5895 5894 5893 5892 5891 5890 5889 5888 5886 5885 5883 5882 5881 5879 5878 5877 5875 5874 5872 5871 5869 5868 5867 5865 5864 5862 5860 5859 5857 5856 5854 5852 5851 5849 5848 5846 5844
5891 5891 5891 5891 5890 5890 5890 5889 5888 5887 5886 5885 5884 5883 5882 5881 5879 5878 5877 5875 5874 5873 5871 5870 5868 5867 5865 5864 5862 5861 5859 5858 5856 5855 5853 5852 5850 5849 5847 5845 5843 5841 5839
5885 5885 5885 5885 5885 5885 5884 5884 5883 5882 5881 5880 5879 5878 5877 5876 5874 5873 5872 5870 5869 5868 5866 5865 5863 5862 5860 5859 5857 5856 5854 5853 5851 5850 5849 5847 5846 5844 5842 5840 5838 5836 5834
5877 5878 5878 5878 5879 5878 5878 5878 5877 5876 5875 5874 5873 5872 5871 5870 5869 5868 5866 5865 5864 5862 5861 5860 5858 5856 5855 5854 5852 5850 5849 5848 5846 5845 5843 5842 5840 5839 5837 5835 5833 5831 5829
5870 5870 5871 5871 5871 5871 5871 5871 5870 5869 5868 5867 5866 5865 5864 5863 5862 5861 5860 5858 5857 5856 5854 5853 5852 5850 5849 5848 5846 5844 5843 5842 5840 5839 5837 5836 5835 5833 5831 5829 5828 5826 5824
5862 5862 5863 5863 5863 5863 5863 5863 5862 5861 5861 5860 5859 5858 5857 5855 5854 5853 5852 5850 5849 5848 5847 5846 5845 5844 5842 5841 5839 5837 5836 5835 5834 5832 5831 5829 5828 5827 5825 5823 5821 5820 5818
5854 5854 5854 5854 5855 5855 5855 5854 5854 5853 5852 5852 5851 5850 5848 5847 5846 5845 5844 5842 5841 5840 5839 5838 5838 5836 5835 5833 5831 5830 5829 5827 5826 5825 5824 5823 5821 5820 5818 5816 5815 5813 5812
5845 5845 5845 5846 5846 5845 5846 5846 5845 5845 5844 5843 5842 5841 5839 5838 5837 5836 5835 5834 5833 5832 5831 5830 5829 5828 5827 5826 5824 5823 5822 5820 5818 5817 5816 5815 5814 5812 5811 5809 5808 5806 5804
5835 5835 5835 5836 5836 5836 5836 5836 5836 5835 5835 5834 5833 5832 5831 5829 5828 5827 5826 5825 5824 5823 5822 5821 5820 5819 5818 5817 5816 5815 5813 5812 5810 5809 5808 5807 5806 5804 5803 5801 5800 5798 5796
5824 5825 5825 5825 5825 5826 5827 5826 5826 5826 5825 5825 5824 5823 5822 5820 5819 5818 5817 5815 5815 5813 5812 5811 5810 5810 5809 5808 5807 5806 5804 5803 5802 5801 5800 5799 5798 5796 5795 5793 5792 5790 5789
5813 5814 5814 5815 5815 5816 5816 5816 5816 5816 5815 5815 5814 5813 5812 5811 5810 5808 5807 5806 5805 5804 5803 5802 5801 5800 5799 5799 5798 5797 5795 5794 5793 5792 5791 5790 5789 5788 5787 5785 5784 5782 5780
5802 5803 5804 5805 5805 5806 5806 5806 5806 5806 5805 5805 5804 5803 5802 5801 5800 5799 5798 5796 5796 5794 5793 5792 5791 5790 5790 5789 5788 5787 5786 5785 5784 5783 5782 5782 5780 5780 5778 5777 5775 5773 5772